Вернуться в каталог

CZ-6A DEB

АктивенPO
NORAD 60719·DEBRIS·🇨🇳 China

Запущен Aug 6, 2024 с Taiyuan Satellite Launch Center

Loading…

Ближайшие Пролёты (ближайшие 24 часа)

TLE

СвежийSource: Space-Track

Эпоха: Sep 14, 2026, 18:17 UTC

1 60719U 24140DY  26257.76204273  .00002522  00000-0  54762-3 0  9995
2 60719  89.2055 279.7317 0124294   3.8720 356.3420 14.53080188110588

Отслеживайте CZ-6A DEB в реальном времени с AllMySat

Download on the App Store